Regional Weather Roundup
Issued by NWS Memphis, TN

Home | Current Version | Previous Version | Text Only | Print | Product List | Glossary On
Versions: 1 2 3 4 5 6 7 8 9 10 11 12 13 14 15 16 17 18 19 20 21 22 23 24 25 26 27 28 29 30 31 32 33 34 35 36 37 38 39 40 41 42 43 44 45 46 47 48 49 50
000
ASUS44 KMEG 291110
RWRMEG
MEMPHIS CWA HOURLY WEATHER ROUNDUP
NATIONAL WEATHER SERVICE MEMPHIS TN
600 AM CDT SUN MAR 29 2015

...WEST TENNESSEE...

CITY           SKY/WX    TMP DP  RH WIND       PRES   REMARKS
MEMPHIS INTL   CLEAR     37  24  59 SE7       30.24F WCI  32
NWS MEMPHIS      N/A     34 N/A N/A MISG        N/A
JACKSON        CLEAR     33  20  58 SE5       30.27F WCI  29
LEXINGTON      CLEAR     25  18  74 SE3       30.28S
SAVANNAH       CLEAR     27  19  74 CALM      30.31R
DYERSBURG      CLEAR     32  16  51 SE7       30.28R WCI  26
UNION CITY     CLEAR     30  18  59 SE7       30.26R WCI  23
PARIS          CLEAR     28  12  50 SE8       30.27F WCI  20


...EASTERN ARKANSAS...

CITY           SKY/WX    TMP DP  RH WIND       PRES   REMARKS
JONESBORO      CLEAR     32  30  92 CALM      30.24F
WEST MEMPHIS   CLEAR     34  28  79 SE6       30.24F WCI  29
BATESVILLE     CLEAR     34  27  75 E5        30.22S WCI  30
NEWPORT        CLEAR     35  32  89 SE6       30.24F WCI  30
BLYTHEVILLE    CLEAR     35  29  78 SE8       30.25S WCI  29
SEARCY         CLEAR     31  30  96 CALM      30.24F
STUTTGART      CLOUDY    39  30  70 SE8       30.22S WCI  34
PINE BLUFF     MOCLDY    40  34  79 E8        30.20F WCI  34
MONTICELLO     CLOUDY    42  34  73 E7        30.20S


...NORTH MISSISSIPPI...

CITY           SKY/WX    TMP DP  RH WIND       PRES   REMARKS
TUPELO         CLOUDY    37  31  78 SE7       30.30S WCI  32
OXFORD         MOCLDY    36  27  69 SE6       30.28F WCI  31
OLIVE BRANCH   CLEAR     32  30  93 SE6       30.26F WCI  26
TUNICA         MOCLDY    36  32  87 E7        30.25F WCI  30
CLARKSDALE     CLOUDY    39  32  75 SE9       30.25F WCI  33
CORINTH        CLEAR     30  27  86 SE5       30.29S WCI  25
GREENWOOD      CLOUDY    44  27  51 VRB3      30.25F
COLUMBUS       CLOUDY    41  31  67 SE6       30.31S
STARKVILLE     CLOUDY    41  32  70 SE6       30.30S


...SOUTHEAST MISSOURI...

CITY           SKY/WX    TMP DP  RH WIND       PRES   REMARKS
WEST PLAINS    CLEAR     31  27  85 S7        30.16F WCI  24
POPLAR BLUFF   CLEAR     31  28  89 CALM      30.24R
CAPE GIRARDEAU CLEAR     32  23  69 SE8       30.24S WCI  25


...NORTHWEST ALABAMA...

CITY           SKY/WX    TMP DP  RH WIND       PRES   REMARKS
MUSCLE SHOALS  CLEAR     29  22  75 SE3       30.33R


...MIDDLE TENNESSEE...

CITY           SKY/WX    TMP DP  RH WIND       PRES   REMARKS
NASHVILLE      CLEAR     25  20  81 S3        30.34R
CLARKSVILLE    CLEAR     23  17  78 SE3       30.31S
COLUMBIA       CLEAR    N/A N/A N/A CALM      30.30R


...WESTERN KENTUCKY...

CITY           SKY/WX    TMP DP  RH WIND       PRES   REMARKS
PADUCAH        CLEAR     32  19  58 SE9       30.26S WCI  24
FORT CAMPBELL  CLEAR     28  17  64 SE5       30.29F WCI  23


...CENTRAL ARKANSAS...

CITY           SKY/WX    TMP DP  RH WIND       PRES   REMARKS
LITTLE ROCK    MOCLDY    41  32  70 E8        30.20F


SKY/WX REPORTED AS FAIR MEANS FEW OR NO CLOUDS BELOW
12 THOUSAND FEET.



USA.gov is the U.S. government's official web portal to all federal, state and local government web resources and services.